GPS III SV06

operational
NORAD ID: 55268 Int'l Des: 2023-009 Owner: SFSSC Country: US Constellation: GPS
MEOCIRCULARGNSS

About GPS III SV06

Description loading...

Live Position

Loading 3D Globe...

Upcoming Passes

Altitude History

Altitude vs Time

uPlot chart will show altitude changes over time

Two-Line Element Set

1 55268U 23009A 25298.36717149 .00000045 00000-0 00000+0 0 9992
2 55268 55.0992 157.7460 0003626 358.6002 178.0877 2.00559782 20535
Epoch: Oct 25, 2025 • Age: 11 hours

Current Status

Altitude 20192.3 km
Velocity 3.87 km/s
Sub-Earth Point 34.46°N, 16.88°W
Launch Date Jan 18, 2023
Age 2.7 years
Type navigation

Technical Details

Classification Payload
Mass 4352.00 kg
Dry Mass 2160.00 kg
Total Mass 4352.00 kg
Length 3.40 m
Diameter 1.80 m
Span 14.00 m
Shape Box + 2 pan
Manufacturer LMSSD
Bus Type A2100
Phase Status In Orbit
Owner/State SFSSC/US

Large Constellations

Loading constellations...